Regional Weather Roundup
Issued by NWS Nashville, TN

Home | Current Version | Previous Version | Text Only | Print | Product List | Glossary On
Versions: 1 2 3 4 5 6 7 8 9 10 11 12 13 14 15 16 17 18 19 20 21 22 23 24 25 26 27 28 29 30 31 32 33 34 35 36 37 38 39 40 41 42 43 44 45 46 47 48 49 50
964
ASUS44 KOHX 071110
RWROHX
MIDDLE TENNESSEE HOURLY WEATHER ROUNDUP
NATIONAL WEATHER SERVICE NASHVILLE TN
500 AM CST SUN FEB 07 2016

NOTE: "FAIR" INDICATES FEW OR NO CLOUDS BELOW 12,000 FEET WITH
NO SIGNIFICANT WEATHER AND/OR OBSTRUCTIONS TO VISIBILITY.

* THESE REPORTS ARE NOT UNDER NWS QUALITY CONTROL AND MAY NOT
  REPORT WEATHER SUCH AS PRECIPITATION AND FOG.


TNZ005>011-023>034-057-059-062>066-078-080-071200
...NORTHERN MIDDLE TENNESSEE...

CITY           SKY/WX    TMP DP  RH WIND       PRES   REMARKS
CLARKSVILLE    CLEAR     27  25  92 CALM      30.20S
CROSSVILLE     CLEAR     27  21  78 CALM      30.16S
DICKSON        CLEAR     30  19  64 W5        30.18F WCI  25
LEBANON        CLEAR     24  21  88 CALM      30.18S
NASHVILLE      CLEAR     28  23  81 S3        30.21S
PORTLAND       CLEAR    N/A N/A N/A CALM      30.17F
ROCKWOOD       CLEAR     34  18  52 N6        30.14S WCI  29
SMYRNA         PTCLDY    24  23  96 CALM      30.22S
SPARTA         CLEAR     21  19  93 CALM      30.17F
$$
TNZ056-058-060-061-075>077-079-093>097-071200
...SOUTHERN MIDDLE TENNESSEE...

CITY           SKY/WX    TMP DP  RH WIND       PRES   REMARKS
COLUMBIA       CLEAR     27  27 100 CALM      30.20R
FAYETTEVILLE   PTCLDY    30  25  80 CALM      30.20R
LEWISBURG      CLEAR     22  19  88 CALM      30.20S
MCMINNVILLE    CLEAR     25  25 100 CALM      30.19S
SHELBYVILLE    CLEAR     25  25 100 E3        30.21S
TULLAHOMA      CLEAR     25  21  86 CALM      30.20R
WINCHESTER     CLEAR     23  21  93 CALM      30.20R
$$


...KEY TO REMARKS...
VSB - VISIBILITY IN MILES
WCI - WIND CHILL INDEX
HX  - HEAT INDEX





USA.gov is the U.S. government's official web portal to all federal, state and local government web resources and services.